User: anonymous   Login
Location: Unspecified
(0.0000°N, 0.0000°E)
Time: 17:20:30
(UTC+00:00)
Language:

UWE-1 - Orbit

View from above orbital plane
View from above orbital plane
View from above satellite
View from above satellite

Ground track
Ground track

The orbit data is extracted from the following two-line orbital elements,

1 28892U 05043C   18145.42650500 +.00000129 +00000-0 +33532-4 0  9994
2 28892 097.9125 296.5625 0017334 137.9769 222.2767 14.63489607670648
Epoch (UTC): 25 May 2018 10:14:10
Eccentricity: 0.0017334
inclination: 97.9125°
perigee height: 669 km
apogee height: 694 km
right ascension of ascending node: 296.5625°
argument of perigee: 137.9769°
revolutions per day: 14.63489607
mean anomaly at epoch: 222.2767°
orbit number at epoch: 67064

The dashed part of the orbit path shows where the satellite is in the earth's shadow,  

DLR